KC4KQE Weather Reports


Display with metric or nautical units.
time (UTC)temp
F
wind
direction
speed
MPH
gust
MPH
rain 1hr
in
rain 24hr
in
rain mn
in
humidity
%
barometer
mb
20260507115416 66 110 4.0 5.0 0.00 0.00 0.00 32 1013.6
20260507114917 66 110 1.0 5.0 0.00 0.00 0.00 31 1013.7
20260507114417 66 110 4.0 7.0 0.00 0.00 0.00 32 1013.8
20260507113916 66 110 3.0 5.0 0.00 0.00 0.00 32 1013.8
20260507113416 66 110 0.0 7.0 0.00 0.00 0.00 32 1013.7
20260507112916 66 110 3.0 11.0 0.00 0.00 0.00 32 1013.7
20260507112417 66 110 5.0 9.0 0.00 0.00 0.00 32 1013.7
20260507111916 66 110 8.0 10.0 0.00 0.00 0.00 33 1013.7
20260507111416 66 110 3.0 5.0 0.00 0.00 0.00 32 1013.7
20260507110916 66 110 3.0 8.0 0.00 0.00 0.00 32 1013.7
20260507110417 66 110 3.0 7.0 0.00 0.00 0.00 32 1013.7
20260507105917 66 110 4.0 10.0 0.00 0.00 0.00 32 1013.7
20260507105416 66 110 5.0 9.0 0.00 0.00 0.00 33 1013.7
20260507104916 65 110 4.0 9.0 0.00 0.00 0.00 33 1013.7
20260507104418 65 110 3.0 4.0 0.00 0.00 0.00 33 1013.7
20260507103916 65 110 3.0 4.0 0.00 0.00 0.00 33 1013.7
20260507103416 65 110 3.0 5.0 0.00 0.00 0.00 33 1013.8
20260507102916 65 110 3.0 5.0 0.00 0.00 0.00 33 1013.9
20260507102417 65 110 3.0 0.0 0.00 0.00 0.00 33 1014.0
20260507101917 65 110 3.0 4.0 0.00 0.00 0.00 33 1014.0
20260507101417 65 110 4.0 7.0 0.00 0.00 0.00 33 1014.0
20260507100916 65 110 4.0 7.0 0.00 0.00 0.00 33 1014.1
20260507100417 65 110 2.0 7.0 0.00 0.00 0.00 32 1014.2
20260507095916 65 110 3.0 7.0 0.00 0.00 0.00 32 1014.3
20260507095417 66 110 4.0 9.0 0.00 0.00 0.00 32 1014.3
20260507094917 66 110 5.0 9.0 0.00 0.00 0.00 32 1014.4
20260507094418 65 110 8.0 9.0 0.00 0.00 0.00 32 1014.5
20260507093917 65 110 3.0 8.0 0.00 0.00 0.00 32 1014.4
20260507093416 65 110 4.0 8.0 0.00 0.00 0.00 32 1014.5
20260507092917 65 110 3.0 7.0 0.00 0.00 0.00 32 1014.5
20260507092416 65 110 3.0 9.0 0.00 0.00 0.00 32 1014.6
20260507091917 65 110 4.0 7.0 0.00 0.00 0.00 32 1014.6
20260507091416 65 110 5.0 7.0 0.00 0.00 0.00 32 1014.6
20260507090916 65 110 2.0 8.0 0.00 0.00 0.00 32 1014.6
20260507090416 64 110 5.0 7.0 0.00 0.00 0.00 32 1014.6
20260507085916 64 110 4.0 5.0 0.00 0.00 0.00 32 1014.6
20260507085417 64 110 3.0 5.0 0.00 0.00 0.00 32 1014.7
20260507084917 65 110 2.0 5.0 0.00 0.00 0.00 32 1014.7
20260507084416 65 110 4.0 5.0 0.00 0.00 0.00 32 1014.8
20260507083916 65 110 3.0 4.0 0.00 0.00 0.00 31 1014.8
20260507083416 65 110 4.0 5.0 0.00 0.00 0.00 31 1014.9
20260507082916 66 110 5.0 5.0 0.00 0.00 0.00 30 1014.9
20260507082416 66 110 4.0 5.0 0.00 0.00 0.00 30 1015.0
20260507081917 67 110 3.0 5.0 0.00 0.00 0.00 29 1015.0
20260507081416 68 110 4.0 7.0 0.00 0.00 0.00 28 1015.0
20260507080916 69 110 4.0 8.0 0.00 0.00 0.00 28 1015.0
20260507080416 69 110 3.0 7.0 0.00 0.00 0.00 28 1015.1
20260507075916 70 110 2.0 5.0 0.00 0.00 0.00 28 1015.1
20260507075416 70 110 3.0 5.0 0.00 0.00 0.00 27 1015.0
20260507074916 70 110 2.0 8.0 0.00 0.00 0.00 28 1015.1
20260507074417 70 110 4.0 5.0 0.00 0.00 0.00 28 1015.1
20260507073917 69 110 2.0 4.0 0.00 0.00 0.00 29 1015.1
20260507073416 67 110 2.0 4.0 0.00 0.00 0.00 30 1015.1
20260507072917 67 110 3.0 3.0 0.00 0.00 0.00 31 1015.1
20260507072416 67 110 1.0 3.0 0.00 0.00 0.00 30 1015.1
20260507071917 68 110 2.0 3.0 0.00 0.00 0.00 29 1015.1
20260507071418 69 110 2.0 3.0 0.00 0.00 0.00 28 1015.1
20260507070916 70 110 0.0 3.0 0.00 0.00 0.00 27 1015.0
20260507070418 70 110 1.0 3.0 0.00 0.00 0.00 27 1015.1
20260507065916 70 110 2.0 7.0 0.00 0.00 0.00 27 1015.1
20260507065417 70 110 2.0 7.0 0.00 0.00 0.00 27 1015.1
20260507064916 69 110 4.0 5.0 0.00 0.00 0.00 28 1015.0
20260507064416 70 110 3.0 5.0 0.00 0.00 0.00 28 1015.0
20260507063916 69 110 3.0 7.0 0.00 0.00 0.00 29 1015.0
20260507063416 69 110 1.0 2.0 0.00 0.00 0.00 29 1015.0
20260507062916 69 110 2.0 4.0 0.00 0.00 0.00 29 1015.0
20260507062416 69 110 2.0 4.0 0.00 0.00 0.00 29 1014.9
20260507061916 67 110 1.0 4.0 0.00 0.00 0.00 31 1014.8
20260507061417 67 110 4.0 4.0 0.00 0.00 0.00 32 1015.0
20260507060916 66 110 2.0 3.0 0.00 0.00 0.00 33 1015.0
20260507060416 66 110 0.0 2.0 0.00 0.00 0.00 33 1015.0
20260507055916 67 110 0.0 2.0 0.00 0.00 0.00 33 1015.0
20260507055418 67 110 0.0 0.0 0.00 0.00 0.00 32 1014.9
20260507054916 68 110 0.0 0.0 0.00 0.00 0.00 31 1015.0
20260507054416 68 110 0.0 0.0 0.00 0.00 0.00 31 1015.0
20260507053916 68 110 0.0 1.0 0.00 0.00 0.00 30 1015.0
20260507053416 68 110 1.0 1.0 0.00 0.00 0.00 30 1014.9
20260507052916 68 110 0.0 1.0 0.00 0.00 0.00 30 1014.9
20260507052417 68 110 0.0 2.0 0.00 0.00 0.00 31 1014.9
20260507051917 67 110 0.0 2.0 0.00 0.00 0.00 32 1015.0
20260507051417 67 110 1.0 1.0 0.00 0.00 0.00 32 1014.9
20260507050917 67 110 0.0 0.0 0.00 0.00 0.00 33 1015.0
20260507050416 68 110 0.0 0.0 0.00 0.00 0.00 32 1015.0
20260507045917 68 110 0.0 2.0 0.00 0.00 0.00 33 1014.9
20260507045416 68 110 1.0 2.0 0.00 0.00 0.00 32 1014.9
20260507044916 69 110 0.0 1.0 0.00 0.00 0.00 32 1014.9
20260507044417 69 110 1.0 1.0 0.00 0.00 0.00 31 1014.8
20260507043916 69 110 0.0 2.0 0.00 0.00 0.00 31 1014.8
20260507043418 69 110 1.0 2.0 0.00 0.00 0.00 31 1014.7
20260507042916 69 110 1.0 2.0 0.00 0.00 0.00 31 1014.7
20260507042416 69 110 2.0 2.0 0.00 0.00 0.00 31 1014.7
20260507041916 70 110 1.0 2.0 0.00 0.00 0.00 31 1014.6
20260507041417 70 110 1.0 2.0 0.00 0.00 0.00 31 1014.5
20260507040916 70 110 1.0 1.0 0.00 0.00 0.00 31 1014.5
20260507040416 70 110 0.0 1.0 0.00 0.00 0.00 31 1014.4
20260507035916 70 110 1.0 2.0 0.00 0.00 0.00 31 1014.3
20260507035416 70 110 1.0 1.0 0.00 0.00 0.00 30 1014.3
20260507034916 70 110 0.0 1.0 0.00 0.00 0.00 30 1014.2
20260507034416 70 110 1.0 1.0 0.00 0.00 0.00 30 1014.1
20260507033916 70 110 0.0 1.0 0.00 0.00 0.00 30 1014.1
20260507033416 71 110 0.0 1.0 0.00 0.00 0.00 30 1014.0
20260507032916 71 110 0.0 0.0 0.00 0.00 0.00 29 1014.0
20260507032416 71 110 0.0 0.0 0.00 0.00 0.00 28 1013.9
20260507031916 72 110 0.0 0.0 0.00 0.00 0.00 27 1013.8
20260507031416 72 110 0.0 0.0 0.00 0.00 0.00 27 1013.8
20260507030916 72 110 0.0 0.0 0.00 0.00 0.00 27 1013.7
20260507030416 72 110 0.0 1.0 0.00 0.00 0.00 26 1013.7
20260507025916 73 110 0.0 1.0 0.00 0.00 0.00 26 1013.6
20260507025416 74 110 1.0 2.0 0.00 0.00 0.00 24 1013.5
20260507024916 74 110 0.0 2.0 0.00 0.00 0.00 24 1013.5
20260507024416 75 110 0.0 0.0 0.00 0.00 0.00 24 1013.4
20260507023916 75 110 0.0 2.0 0.00 0.00 0.00 23 1013.4
20260507023418 76 110 0.0 2.0 0.00 0.00 0.00 22 1013.4
20260507022916 77 110 2.0 3.0 0.00 0.00 0.00 22 1013.3
20260507022418 77 110 3.0 4.0 0.00 0.00 0.00 21 1013.2
20260507021916 78 110 2.0 4.0 0.00 0.00 0.00 21 1013.2
20260507021416 78 110 4.0 5.0 0.00 0.00 0.00 21 1013.1
20260507020916 78 110 2.0 9.0 0.00 0.00 0.00 21 1013.1
20260507020417 78 110 1.0 3.0 0.00 0.00 0.00 21 1013.1
20260507015916 79 110 3.0 5.0 0.00 0.00 0.00 20 1013.1
20260507015416 79 110 2.0 8.0 0.00 0.00 0.00 20 1013.0
20260507014917 79 110 2.0 8.0 0.00 0.00 0.00 20 1013.0
20260507014417 79 110 5.0 7.0 0.00 0.00 0.00 20 1013.0
20260507013916 79 110 4.0 9.0 0.00 0.00 0.00 20 1013.0
20260507013416 80 110 4.0 9.0 0.00 0.00 0.00 19 1013.0
20260507012916 80 110 4.0 9.0 0.00 0.00 0.00 19 1013.0
20260507012417 80 110 5.0 10.0 0.00 0.00 0.00 19 1013.0
20260507011917 80 110 4.0 9.0 0.00 0.00 0.00 19 1013.0
20260507011417 80 110 2.0 10.0 0.00 0.00 0.00 19 1013.0
20260507010922 80 110 5.0 9.0 0.00 0.00 0.00 19 1013.0
20260507010418 81 110 8.0 11.0 0.00 0.00 0.00 19 1013.0
20260507005916 80 110 1.0 11.0 0.00 0.00 0.00 19 1013.0
20260507005416 81 110 9.0 11.0 0.00 0.00 0.00 19 1012.9
20260507004916 81 110 1.0 5.0 0.00 0.00 0.00 19 1012.9
20260507004417 81 110 2.0 8.0 0.00 0.00 0.00 19 1012.9
20260507003916 81 110 5.0 7.0 0.00 0.00 0.00 19 1012.9
20260507003416 81 110 5.0 11.0 0.00 0.00 0.00 19 1012.9
20260507002916 81 110 7.0 11.0 0.00 0.00 0.00 19 1012.8
20260507002417 81 110 4.0 10.0 0.00 0.00 0.00 19 1012.9
20260507001917 81 110 5.0 11.0 0.00 0.00 0.00 19 1012.8
20260507001416 81 110 4.0 10.0 0.00 0.00 0.00 19 1012.8
20260507000916 81 110 3.0 11.0 0.00 0.00 0.00 19 1012.9
20260507000416 81 110 5.0 10.0 0.00 0.00 0.00 19 1012.8
20260506235916 82 110 7.0 9.0 0.00 0.00 0.00 19 1012.9
20260506235416 81 110 5.0 10.0 0.00 0.00 0.00 19 1012.8
20260506234917 81 110 7.0 11.0 0.00 0.00 0.00 19 1012.9
20260506234416 81 110 3.0 10.0 0.00 0.00 0.00 19 1013.0
20260506233917 81 110 1.0 12.0 0.00 0.00 0.00 18 1013.0
20260506233416 82 110 8.0 16.0 0.00 0.00 0.00 18 1013.0
20260506232916 82 110 10.0 13.0 0.00 0.00 0.00 19 1013.0
20260506232416 81 110 2.0 11.0 0.00 0.00 0.00 19 1013.0
20260506231916 82 110 0.0 9.0 0.00 0.00 0.00 19 1013.1
20260506231417 82 110 5.0 9.0 0.00 0.00 0.00 19 1013.1
20260506230916 82 110 3.0 13.0 0.00 0.00 0.00 19 1013.2
20260506230416 81 110 2.0 11.0 0.00 0.00 0.00 19 1013.1
20260506225916 81 110 4.0 11.0 0.00 0.00 0.00 19 1013.1
20260506225417 82 110 10.0 11.0 0.00 0.00 0.00 19 1013.2
20260506224918 81 110 4.0 13.0 0.00 0.00 0.00 19 1013.3
20260506224416 81 110 8.0 15.0 0.00 0.00 0.00 19 1013.3
20260506223917 81 110 3.0 9.0 0.00 0.00 0.00 19 1013.4
20260506223416 82 110 4.0 10.0 0.00 0.00 0.00 19 1013.4
20260506222917 80 110 5.0 11.0 0.00 0.00 0.00 19 1013.5
20260506222416 80 110 11.0 14.0 0.00 0.00 0.00 19 1013.5
20260506221916 81 110 8.0 13.0 0.00 0.00 0.00 18 1013.6
20260506221416 81 110 7.0 13.0 0.00 0.00 0.00 19 1013.7
20260506220916 81 110 3.0 11.0 0.00 0.00 0.00 19 1013.8
20260506220416 81 110 2.0 8.0 0.00 0.00 0.00 19 1013.8
20260506215916 80 110 2.0 13.0 0.00 0.00 0.00 20 1013.9
20260506215416 80 110 3.0 9.0 0.00 0.00 0.00 20 1013.9
20260506214916 81 110 8.0 14.0 0.00 0.00 0.00 19 1014.0
20260506214417 81 110 11.0 14.0 0.00 0.00 0.00 19 1014.0
20260506213916 80 110 2.0 10.0 0.00 0.00 0.00 20 1014.1
20260506213416 81 110 7.0 12.0 0.00 0.00 0.00 19 1014.3
20260506212916 81 110 9.0 14.0 0.00 0.00 0.00 20 1014.3
20260506212416 80 110 7.0 11.0 0.00 0.00 0.00 20 1014.3
20260506211916 80 110 7.0 11.0 0.00 0.00 0.00 20 1014.4
20260506211416 79 110 10.0 12.0 0.00 0.00 0.00 21 1014.4
20260506210916 79 110 10.0 12.0 0.00 0.00 0.00 21 1014.5
20260506210416 79 110 1.0 8.0 0.00 0.00 0.00 20 1014.5
20260506205916 81 110 4.0 12.0 0.00 0.00 0.00 20 1014.7
20260506205416 81 110 5.0 11.0 0.00 0.00 0.00 19 1014.8
20260506204916 80 110 1.0 10.0 0.00 0.00 0.00 20 1014.8
20260506204416 79 110 5.0 10.0 0.00 0.00 0.00 21 1014.9
20260506203916 79 110 7.0 9.0 0.00 0.00 0.00 21 1015.0
20260506203416 80 110 4.0 12.0 0.00 0.00 0.00 21 1015.0
20260506202918 80 110 9.0 14.0 0.00 0.00 0.00 21 1015.0
20260506202416 78 110 3.0 5.0 0.00 0.00 0.00 23 1015.1
20260506201916 77 110 5.0 7.0 0.00 0.00 0.00 21 1015.1
20260506201416 79 110 0.0 9.0 0.00 0.00 0.00 21 1015.2
20260506200916 80 110 3.0 13.0 0.00 0.00 0.00 21 1015.2
20260506200416 77 110 5.0 7.0 0.00 0.00 0.00 24 1015.2
20260506195917 77 110 0.0 7.0 0.00 0.00 0.00 23 1015.3
20260506195417 77 110 1.0 12.0 0.00 0.00 0.00 23 1015.4
20260506194916 79 110 4.0 13.0 0.00 0.00 0.00 22 1015.3
20260506194417 77 110 10.0 12.0 0.00 0.00 0.00 23 1015.3
20260506193917 77 110 11.0 13.0 0.00 0.00 0.00 23 1015.4
20260506193416 76 110 7.0 16.0 0.00 0.00 0.00 24 1015.4
20260506192916 77 110 11.0 13.0 0.00 0.00 0.00 25 1015.4
20260506192416 76 110 2.0 7.0 0.00 0.00 0.00 24 1015.5
20260506191916 76 110 2.0 11.0 0.00 0.00 0.00 24 1015.6
20260506191416 77 110 8.0 14.0 0.00 0.00 0.00 24 1015.7
20260506190916 78 110 7.0 14.0 0.00 0.00 0.00 24 1015.7
20260506190417 76 110 5.0 9.0 0.00 0.00 0.00 26 1015.7
20260506185916 75 110 4.0 11.0 0.00 0.00 0.00 26 1015.8
20260506185416 76 110 2.0 8.0 0.00 0.00 0.00 25 1015.9
20260506184916 76 110 8.0 10.0 0.00 0.00 0.00 26 1015.9
20260506184416 75 110 5.0 14.0 0.00 0.00 0.00 26 1016.0
20260506183917 75 110 4.0 7.0 0.00 0.00 0.00 27 1016.1
20260506183416 76 110 5.0 10.0 0.00 0.00 0.00 26 1016.2
20260506182916 74 110 4.0 4.0 0.00 0.00 0.00 27 1016.2
20260506182416 75 110 3.0 12.0 0.00 0.00 0.00 26 1016.3
20260506181916 75 110 10.0 12.0 0.00 0.00 0.00 26 1016.3
20260506181416 75 110 7.0 12.0 0.00 0.00 0.00 27 1016.3
20260506180917 74 110 4.0 9.0 0.00 0.00 0.00 28 1016.4
20260506180416 73 110 0.0 10.0 0.00 0.00 0.00 28 1016.4
20260506175916 72 110 3.0 5.0 0.00 0.00 0.00 28 1016.4
20260506175417 74 110 4.0 8.0 0.00 0.00 0.00 27 1016.5
20260506174917 72 110 2.0 7.0 0.00 0.00 0.00 29 1016.5
20260506174416 73 110 1.0 11.0 0.00 0.00 0.00 27 1016.6
20260506173916 73 110 7.0 8.0 0.00 0.00 0.00 29 1016.5
20260506173416 72 110 3.0 11.0 0.00 0.00 0.00 30 1016.4
20260506172916 72 110 2.0 10.0 0.00 0.00 0.00 30 1016.4
20260506172416 71 110 5.0 8.0 0.00 0.00 0.00 30 1016.4
20260506171916 72 110 5.0 10.0 0.00 0.00 0.00 30 1016.4
20260506171416 71 110 5.0 10.0 0.00 0.00 0.00 31 1016.4
20260506170916 71 110 0.0 5.0 0.00 0.00 0.00 31 1016.4
20260506170416 70 110 2.0 4.0 0.00 0.00 0.00 31 1016.5
20260506165916 71 110 2.0 8.0 0.00 0.00 0.00 31 1016.5
20260506165416 70 110 7.0 8.0 0.00 0.00 0.00 32 1016.4
20260506164916 71 110 3.0 7.0 0.00 0.00 0.00 33 1016.4
20260506164416 70 110 3.0 3.0 0.00 0.00 0.00 33 1016.4
20260506163916 69 110 1.0 4.0 0.00 0.00 0.00 33 1016.3
20260506163416 69 110 4.0 7.0 0.00 0.00 0.00 33 1016.4
20260506162917 69 110 3.0 5.0 0.00 0.00 0.00 33 1016.3
20260506162418 70 110 2.0 8.0 0.00 0.00 0.00 33 1016.3
20260506161916 70 110 1.0 5.0 0.00 0.00 0.00 34 1016.3
20260506161416 69 110 2.0 5.0 0.00 0.00 0.00 34 1016.3
20260506160916 69 110 0.0 3.0 0.00 0.00 0.00 34 1016.3
20260506160417 68 110 0.0 5.0 0.00 0.00 0.00 35 1016.3
20260506155917 68 110 1.0 4.0 0.00 0.00 0.00 35 1016.3
20260506155416 68 110 1.0 5.0 0.00 0.00 0.00 35 1016.4
20260506154916 67 110 0.0 4.0 0.00 0.00 0.00 36 1016.4
20260506154416 68 110 0.0 3.0 0.00 0.00 0.00 36 1016.4
20260506153916 67 110 2.0 4.0 0.00 0.00 0.00 37 1016.4
20260506153416 67 110 1.0 3.0 0.00 0.00 0.00 37 1016.4
20260506152916 67 110 2.0 3.0 0.00 0.00 0.00 38 1016.4
20260506152416 66 110 1.0 3.0 0.00 0.00 0.00 37 1016.4
20260506151916 66 110 1.0 3.0 0.00 0.00 0.00 37 1016.4
20260506151416 66 110 0.0 3.0 0.00 0.00 0.00 38 1016.4
20260506150916 65 110 1.0 4.0 0.00 0.00 0.00 39 1016.4
20260506150416 65 110 2.0 4.0 0.00 0.00 0.00 40 1016.4
20260506145916 65 110 3.0 5.0 0.00 0.00 0.00 40 1016.3
20260506145416 65 110 2.0 5.0 0.00 0.00 0.00 40 1016.3
20260506144917 65 110 4.0 5.0 0.00 0.00 0.00 40 1016.3
20260506144417 64 110 4.0 4.0 0.00 0.00 0.00 40 1016.3
20260506143916 64 110 1.0 3.0 0.00 0.00 0.00 40 1016.2
20260506143416 64 110 1.0 7.0 0.00 0.00 0.00 41 1016.2
20260506142916 64 110 3.0 7.0 0.00 0.00 0.00 41 1016.1
20260506142416 63 110 2.0 5.0 0.00 0.00 0.00 42 1016.1
20260506141917 63 110 4.0 5.0 0.00 0.00 0.00 43 1016.1
20260506141416 63 110 2.0 4.0 0.00 0.00 0.00 44 1016.1
20260506140916 62 110 1.0 4.0 0.00 0.00 0.00 45 1016.1
20260506140416 62 110 1.0 3.0 0.00 0.00 0.00 46 1015.9
20260506135916 61 110 1.0 2.0 0.00 0.00 0.00 48 1016.0
20260506135416 60 110 1.0 4.0 0.00 0.01 0.00 51 1015.9
20260506134917 59 110 0.0 1.0 0.00 0.01 0.00 56 1015.8
20260506134416 58 110 0.0 2.0 0.00 0.01 0.00 59 1015.8
20260506133917 56 110 1.0 1.0 0.00 0.01 0.00 64 1015.8
20260506133417 55 110 0.0 0.0 0.00 0.01 0.00 66 1015.8
20260506132916 54 110 0.0 0.0 0.00 0.01 0.00 67 1015.7
20260506132416 53 110 0.0 0.0 0.00 0.01 0.00 68 1015.6
20260506131916 53 110 0.0 0.0 0.00 0.01 0.00 67 1015.5
20260506131416 53 110 0.0 0.0 0.00 0.01 0.00 66 1015.5
20260506130916 53 110 0.0 1.0 0.00 0.01 0.00 65 1015.4
20260506130418 52 110 0.0 3.0 0.00 0.01 0.00 67 1015.3
20260506125916 52 110 0.0 0.0 0.00 0.01 0.00 67 1015.3
20260506125416 52 110 0.0 0.0 0.00 0.01 0.00 67 1015.2
20260506124916 52 110 0.0 0.0 0.00 0.01 0.00 67 1015.2
20260506124416 52 110 0.0 0.0 0.00 0.01 0.00 67 1015.1
20260506123916 52 110 0.0 0.0 0.00 0.01 0.00 67 1015.1
20260506123418 52 110 0.0 0.0 0.00 0.01 0.00 68 1015.1
20260506122917 52 110 0.0 0.0 0.00 0.01 0.00 68 1015.0
20260506122416 52 110 0.0 0.0 0.00 0.01 0.00 68 1015.0
20260506121916 52 110 0.0 0.0 0.00 0.01 0.00 67 1014.9
20260506121416 52 110 0.0 0.0 0.00 0.01 0.00 67 1014.8
20260506120916 52 110 0.0 0.0 0.00 0.01 0.00 68 1014.8
20260506120416 52 110 0.0 0.0 0.00 0.01 0.00 68 1014.8
20260506115922 52 110 0.0 0.0 0.00 0.01 0.00 67 1014.7